TIME,�g��[���C[MJ/h],����[MJ/h],�Ɩ�[MJ/h],�~�[[MJ/h],�①��[MJ/h],��y���[MJ/h],�Ǝ��q��[MJ/h],���̑�[MJ/h],�����G�l���M�[[MJ/h]
2004/2/1 0:00,0.4149,0,1.027,0.0111,0.6578,0.6009,0.2605,0.4493,0
2004/2/1 0:15,0.4134,0,0.6103,0.0111,0.3953,0.7839,0.325,0.5643,0
2004/2/1 0:30,0.168,0,0.2595,0.0111,0.5841,0.4605,0.3259,0.6228,0
2004/2/1 0:45,0.0049,0,0,0.0109,0.4951,0.1814,0.2524,0.5808,0
2004/2/1 1:00,0.005,0,0,0.0109,0.4836,0.1819,0.2586,0.5603,0
2004/2/1 1:15,0.005,0,0,0.0109,0.2661,0.18,0.3191,0.5772,0
2004/2/1 1:30,0.0049,0,0,0.0108,0.5859,0.1799,0.2616,0.5479,0
2004/2/1 1:45,0.005,0,0,0.0111,0.5017,0.1804,0.3336,0.5525,0
2004/2/1 2:00,0.005,0,0,0.0109,0.6201,0.1812,0.2638,0.5691,0
2004/2/1 2:15,0.0049,0,0,0.0109,0.758,0.1787,0.2665,0.5514,0
2004/2/1 2:30,0.0049,0,0,0.0108,1.0047,0.1776,0.3272,0.5528,0
2004/2/1 2:45,0.0049,0,0.0003,0.0108,0.4985,0.178,0.328,0.5466,0
2004/2/1 3:00,0.0049,0,0,0.0108,0.6775,0.1774,0.1984,0.5344,0
2004/2/1 3:15,0.0049,0,0,0.0108,0.4487,0.1781,0.3393,0.5856,0
2004/2/1 3:30,0.0049,0,0,0.0108,0.6157,0.1781,0.2652,0.5707,0
2004/2/1 3:45,0.0049,0,0.0012,0.0109,0.1646,0.1786,0.3286,0.5505,0
2004/2/1 4:00,0.0049,0,0.0006,0.0108,0.5717,0.178,0.2796,0.579,0
2004/2/1 4:15,0.005,0,0,0.0108,0.3669,0.1788,0.2684,0.5531,0
2004/2/1 4:30,0.0049,0,0.0016,0.0108,0.6453,0.1786,0.3318,0.5498,0
2004/2/1 4:45,0.0049,0,0.0022,0.0109,0.2625,0.1784,0.2678,0.5524,0
2004/2/1 5:00,0.0049,0,0.0058,0.0108,0.4314,0.1784,0.2716,0.5354,0
2004/2/1 5:15,0.005,0,0.003,0.0108,0.3387,0.1783,0.3387,0.5423,0
2004/2/1 5:30,0.0049,0,0.0081,0.0108,0.6343,0.1776,0.3368,0.5433,0
2004/2/1 5:45,0.0049,0,0.0049,0.0108,0.3414,0.1773,0.266,0.553,0
2004/2/1 6:00,0.0048,0,0.0071,0.0108,0.3662,0.1748,0.2749,0.5481,0
2004/2/1 6:15,0.0049,0,0.0069,0.0107,0.3984,0.1755,0.3322,0.5625,0
2004/2/1 6:30,0.0049,0,0.0095,0.0108,0.5435,0.1755,0.2752,0.5407,0
2004/2/1 6:45,0.0048,0,0.0137,0.0107,0.3424,0.1748,0.3378,0.5315,0
2004/2/1 7:00,0.005,0,0.0193,0.0109,0.3538,0.2163,0.2704,0.5304,0
2004/2/1 7:15,0.8692,0,0.307,0.0109,0.5157,1.2195,0.2748,0.5083,0
2004/2/1 7:30,0.8474,0,0.4634,0.0109,0.417,1.2806,0.3368,0.2019,0
2004/2/1 7:45,0.6559,0,0.4196,0.0109,0.3303,1.13,0.434,0.3152,0
2004/2/1 8:00,0.6425,0,0.0503,0.0108,0.4255,0.9469,0.3339,0.3711,0
2004/2/1 8:15,0.6153,0,0,0.0108,0.5564,0.8778,0.339,0.5069,0
2004/2/1 8:30,0.5494,0,0,0.0108,0.354,0.7301,0.3577,0.3014,0
2004/2/1 8:45,0.5361,0,0.0255,1.3965,0.6265,0.8179,0.755,0.4212,0
2004/2/1 9:00,0.572,0,0.0256,0.4906,0.2277,1.0457,1.0372,0.3427,0
2004/2/1 9:15,0.4977,0,0,0.0108,0.488,0.9697,0.3432,0.5105,0
2004/2/1 9:30,0.5237,0,0,0.0108,0.3573,1.0038,0.1993,0.3741,0
2004/2/1 9:45,0.4625,0,0.0436,0.0108,0.6634,1.0659,0.3387,0.0798,0
2004/2/1 10:00,0.2743,0,0.0462,0.0109,0.3252,0.7328,1.1079,0.1824,0
2004/2/1 10:15,0.005,0,0.0338,0.0109,0.6837,0.3777,0.6489,0.4641,0
2004/2/1 10:30,0.005,0,0.0166,0.0111,0.2352,0.3812,0.4581,0.5403,0
2004/2/1 10:45,0.0052,0,1.243,0.0107,0.4501,0.3367,0.3456,3.2665,0
2004/2/1 11:00,0.005,0,1.4424,0.0111,0.3552,0.3645,0.2894,0.4919,0
2004/2/1 11:15,0.005,0,0.0104,0.0111,0.634,0.6399,0.366,0.5041,0
2004/2/1 11:30,0.0049,0,0.0001,0.0109,0.3267,0.7229,0.2827,0.4758,0
2004/2/1 11:45,0.0049,0,0,0.0108,0.3774,0.6346,0.3552,0.4576,0
2004/2/1 12:00,0.005,0,0,0.0108,0.4105,0.467,0.2936,0.4363,0
2004/2/1 12:15,0.0049,0,0,0.0108,0.5626,0.7465,0.3583,0.4729,0
2004/2/1 12:30,0.0049,0,0,0.0109,0.3421,0.7344,0.2596,0.4582,0
2004/2/1 12:45,0.0049,0,0,0.0108,0.3482,0.6035,0.3191,0.5319,0
2004/2/1 13:00,0.0333,0,0,0.0109,0.4483,0.4985,0.3593,0.518,0
2004/2/1 13:15,1.0737,0,0,0.0109,0.5684,1.5594,0.3066,-0.5315,0
2004/2/1 13:30,0.6437,0,0,0.0109,0.3635,1.5476,0.2716,-0.0768,0
2004/2/1 13:45,0.5756,0,0,0.0108,0.379,1.7441,0.3421,-0.0102,0
2004/2/1 14:00,0.5473,0,0,0.0109,0.4399,1.7064,0.3529,0.0072,0
2004/2/1 14:15,0.5066,0,0,0.0109,0.6661,1.6128,0.3587,0.0026,0
2004/2/1 14:30,0.2184,0,0,0.0109,0.4285,0.9583,0.3646,0.4332,0
2004/2/1 14:45,0.005,0,0,0.0111,0.9534,0.2386,0.2624,1.963,0
2004/2/1 15:00,0.0049,0,0,0.0109,0.8145,0.2377,0.3352,2.0336,0
2004/2/1 15:15,0.005,0,0,0.0109,0.7537,0.2395,0.3375,0.6886,0
2004/2/1 15:30,0.005,0,0,0.0109,0.4414,0.2402,0.2641,0.4939,0
2004/2/1 15:45,0.0049,0,0,0.0108,0.7439,0.2393,0.2664,0.4935,0
2004/2/1 16:00,0.005,0,0,0.0109,0.1521,0.2363,0.2627,0.5031,0
2004/2/1 16:15,0.0048,0,0,0.0107,0.6699,0.2327,0.3288,0.5132,0
2004/2/1 16:30,0.005,0,0,0.0109,0.3642,0.2379,0.3296,0.5388,0
2004/2/1 16:45,0.005,0,0,0.0109,0.6342,0.237,0.1944,0.5041,0
2004/2/1 17:00,0.0049,0,0,0.0108,0.1643,0.2321,0.3318,0.6153,0
2004/2/1 17:15,0.0049,0,0.6337,0.0108,0.6575,0.2359,0.4141,0.6532,0
2004/2/1 17:30,0.0049,0,0.7085,0.0108,0.3947,0.2942,0.2546,0.5803,0
2004/2/1 17:45,0.0049,0,0.725,0.0108,0.6061,0.4284,0.3247,0.6945,0
2004/2/1 18:00,0.3987,0,0.6637,0.0108,0.3086,1.1638,0.3241,0.49,0
2004/2/1 18:15,0.9556,0,0.7049,0.0108,0.4442,1.678,0.2635,-0.1192,0
2004/2/1 18:30,0.6888,0,0.6756,0.0108,0.4092,1.2336,0.2681,0.2363,0
2004/2/1 18:45,0.5712,0,1.0061,0.0108,0.6503,1.0693,0.3263,0.0639,0
2004/2/1 19:00,0.5459,0,0.8361,0.0109,0.4025,1.0588,0.2606,0.0359,0
2004/2/1 19:15,0.58,0,0.6533,0.0107,0.5799,1.0552,0.336,0.0138,0
2004/2/1 19:30,0.5255,0,0.6385,0.0109,0.1986,0.9992,0.1958,0.0331,0
2004/2/1 19:45,0.4922,0,0.6372,0.0108,0.5607,0.9678,0.3335,0.0874,0
2004/2/1 20:00,0.4781,0,0.6362,0.0108,0.4412,0.9406,0.3414,0.1345,0
2004/2/1 20:15,0.4896,0,0.7029,0.0111,0.5764,1.0613,0.2311,0.2565,0
2004/2/1 20:30,0.47,0,0.6369,0.0111,0.4028,1.1457,0.3302,0.3685,0
2004/2/1 20:45,0.5089,0,0.6454,0.0111,0.6644,1.1687,0.2844,0.4978,0
2004/2/1 21:00,0.4594,0,0.6407,0.0109,0.5,1.1121,0.3427,0.4382,0
2004/2/1 21:15,0.5093,0,1.0011,0.0111,0.4887,1.1892,0.3478,0.2795,0
2004/2/1 21:30,0.4405,0,1.1097,0.0111,0.4087,1.1189,0.2184,0.3521,0
2004/2/1 21:45,0.5116,0,0.9203,0.0111,0.5147,1.0639,0.3557,0.3155,0
2004/2/1 22:00,0.4372,0,0.578,0.0109,0.5593,0.8496,0.3482,1.0015,0
2004/2/1 22:15,0.4353,0,0.5646,0.0108,0.3479,0.8436,0.2134,0.5805,0
2004/2/1 22:30,0.4575,0,0.5589,0.0107,0.3953,0.8603,0.347,0.5995,0
2004/2/1 22:45,0.4416,0,0.9645,0.0109,0.3888,0.8546,0.3368,0.5449,0
2004/2/1 23:00,0.41,0,1.0109,0.0109,0.65,0.807,0.2845,0.5828,0
2004/2/1 23:15,0.4213,0,0.9245,0.0111,0.3466,0.8346,0.3181,0.5522,0
2004/2/1 23:30,0.4319,0,1.0565,0.0109,0.5043,0.6168,0.2884,0.5784,0
2004/2/1 23:45,0.4795,0,1.2648,0.0108,0.2552,0.7374,0.3237,0.5554,0
2004/2/2 0:00,0.3509,0,0.4893,0.0109,0.7305,0.6955,0.3288,0.5617,0
2004/2/2 0:15,0.0049,0,0,0.0109,0.3244,0.1813,0.1898,0.5725,0
2004/2/2 0:30,0.005,0,0,0.0109,0.609,0.1804,0.3312,0.5856,0
2004/2/2 0:45,0.005,0,0,0.0109,0.1483,0.181,0.2621,0.6094,0
2004/2/2 1:00,0.0049,0,0,0.0109,0.6962,0.1794,0.3269,0.5898,0
2004/2/2 1:15,0.005,0,0,0.0109,0.3426,0.1803,0.2627,0.5731,0
2004/2/2 1:30,0.005,0,0,0.0109,0.6216,0.1797,0.2566,0.5746,0
2004/2/2 1:45,0.0049,0,0,0.0109,0.1405,0.1797,0.3175,0.5731,0
2004/2/2 2:00,0.005,0,0,0.0109,0.6422,0.1799,0.2612,0.5822,0
2004/2/2 2:15,0.005,0,0,0.0111,0.431,0.1809,0.2627,0.5714,0
2004/2/2 2:30,0.0049,0,0,0.0109,0.7199,0.1787,0.3361,0.5494,0
2004/2/2 2:45,0.0049,0,0.0003,0.0108,0.7717,0.1778,0.2654,0.5688,0
2004/2/2 3:00,0.0049,0,0.0003,0.0109,0.9687,0.1787,0.2599,0.5554,0
2004/2/2 3:15,0.005,0,0.0003,0.0109,0.4575,0.1786,0.2654,0.5848,0
2004/2/2 3:30,0.0049,0,0.0024,0.0109,0.7538,0.179,0.3341,0.5816,0
2004/2/2 3:45,0.005,0,0.0003,0.0109,0.357,0.1786,0.2681,0.5763,0
2004/2/2 4:00,0.0049,0,0.0006,0.0109,0.5993,0.1788,0.264,0.5846,0
2004/2/2 4:15,0.0049,0,0.0007,0.0109,0.1436,0.1791,0.3331,0.5596,0
2004/2/2 4:30,0.0049,0,0.0014,0.0108,0.6657,0.1791,0.2588,0.5705,0
2004/2/2 4:45,0.005,0,0.003,0.0109,0.355,0.1788,0.2677,0.589,0
2004/2/2 5:00,0.0049,0,0.0039,0.0108,0.5784,0.177,0.337,0.5439,0
2004/2/2 5:15,0.0048,0,0,0.0108,0.2493,0.1761,0.2657,0.5777,0
2004/2/2 5:30,0.0049,0,0,0.0107,0.4176,0.1748,0.2674,0.5688,0
2004/2/2 5:45,0.0049,0,0.003,0.0108,0.4451,0.1754,0.3335,0.5511,0
2004/2/2 6:00,0.0048,0,0.0016,0.0107,0.5424,0.1758,0.2677,0.5669,0
2004/2/2 6:15,0.0049,0,0.0016,0.0108,0.3504,0.1761,0.337,0.5695,0
2004/2/2 6:30,0.0049,0,0.3802,0.0108,0.3439,0.3504,0.2006,1.389,0
2004/2/2 6:45,0.0046,0,0.5707,0.0108,0.5185,0.411,0.3904,2.4191,0
2004/2/2 7:00,0.0048,0,0.4604,0.0105,0.5008,0.372,0.3466,2.4795,0
2004/2/2 7:15,0.0048,0,0.4369,0.0107,0.4504,0.1757,0.3364,2.6806,0
2004/2/2 7:30,0.0049,0,0.4038,0.0107,0.2784,0.1774,0.336,0.7973,0
2004/2/2 7:45,0.0049,0,0.4054,0.0109,0.5113,0.2108,0.3381,0.8398,0
2004/2/2 8:00,0.0049,0,0.4042,0.0108,0.4706,0.2124,0.2722,0.8021,0
2004/2/2 8:15,0.0048,0,0.4039,0.0109,0.4836,0.1787,0.2648,0.8008,0
2004/2/2 8:30,0.0049,0,0.4116,0.6497,0.2406,0.3005,0.3384,0.7579,0
2004/2/2 8:45,0.0048,0,0.4019,0.0109,0.4847,0.4038,0.3334,0.6803,0
2004/2/2 9:00,0.0049,0,0.59,0.0108,0.448,0.4127,0.268,0.616,0
2004/2/2 9:15,0.0049,0,0.6775,0.0109,0.5718,0.413,0.4427,0.6892,0
2004/2/2 9:30,0.0048,0,0.5157,0.0109,0.4111,0.4101,0.3478,0.7521,0
2004/2/2 9:45,1.1019,0,1.3965,0.0108,0.6517,1.5291,0.3345,0.0397,0
2004/2/2 10:00,0.7688,0,0.2174,0.0109,0.2508,1.1621,0.2808,0.4074,0
2004/2/2 10:15,0.0049,0,0,0.0109,0.4667,0.1781,0.3341,0.6588,0
2004/2/2 10:30,0.005,0,0,0.0109,0.4087,0.178,0.3312,0.6251,0
2004/2/2 10:45,0.005,0,0,0.0109,0.6173,0.1774,0.3427,0.6286,0
2004/2/2 11:00,0.0049,0,0,0.0109,0.2894,0.1791,0.2032,0.6422,0
2004/2/2 11:15,0.005,0,0,0.0108,0.4251,0.1794,0.34,0.6474,0
2004/2/2 11:30,0.0049,0,0,0.0111,0.3744,0.179,0.3398,0.6589,0
2004/2/2 11:45,0.005,0,0,0.0109,0.6267,0.18,0.2681,0.6634,0
2004/2/2 12:00,0.005,0,0,0.0111,0.214,0.2105,0.3465,0.6407,0
2004/2/2 12:15,0.005,0,0,0.0111,0.4621,0.1799,0.2755,0.6679,0
2004/2/2 12:30,0.005,0,0,0.0111,0.336,0.1812,0.2724,0.6335,0
2004/2/2 12:45,0.005,0,0.0001,0.0109,0.6424,0.1799,0.3489,0.629,0
2004/2/2 13:00,0.0049,0,0,0.0109,0.2317,0.1783,0.2703,0.6061,0
2004/2/2 13:15,0.0049,0,0,0.0108,0.4111,0.1773,0.2684,0.6011,0
2004/2/2 13:30,0.0049,0,0,0.0108,0.3856,0.1784,0.3384,0.6087,0
2004/2/2 13:45,0.0049,0,0,0.0108,0.5905,0.1784,0.3413,0.5891,0
2004/2/2 14:00,0.0049,0,0,0.0109,0.2756,0.1781,0.3489,0.6287,0
2004/2/2 14:15,0.0049,0,0,0.0109,0.4193,0.1791,0.2051,0.6121,0
2004/2/2 14:30,0.005,0,0,0.0108,0.4847,0.1776,0.3432,0.6039,0
2004/2/2 14:45,0.0049,0,0,0.0111,0.5715,0.1801,0.3312,0.5789,0
2004/2/2 15:00,0.005,0,0,0.0111,0.661,0.1813,0.2236,0.6313,0
2004/2/2 15:15,0.005,0,0,0.0111,0.9353,0.181,0.3414,0.6235,0
2004/2/2 15:30,0.005,0,0,0.0111,0.7158,0.1829,0.3401,0.6101,0
2004/2/2 15:45,0.005,0,0,0.0111,0.5593,0.1812,0.2766,0.6376,0
2004/2/2 16:00,0.005,0,0,0.0111,0.6034,0.1806,0.2796,0.6003,0
2004/2/2 16:15,0.0049,0,0,0.0109,0.4395,0.18,0.3411,0.6353,0
2004/2/2 16:30,0.005,0,0.0223,0.0109,0.373,0.1791,0.2768,0.6119,0
2004/2/2 16:45,0.0049,0,0.0321,0.0109,0.3177,0.1783,0.3396,0.5934,0
2004/2/2 17:00,0.0048,0,0.0354,0.0108,0.6101,0.1763,0.3482,0.6241,0
2004/2/2 17:15,0.0049,0,0.0304,0.0108,0.3093,0.1764,0.2064,0.6075,0
2004/2/2 17:30,0.0049,0,0.0359,0.0108,0.4463,0.1773,0.3459,0.5943,0
2004/2/2 17:45,0.0049,0,0.0308,0.0108,0.2147,0.1763,0.3444,0.5835,0
2004/2/2 18:00,0.0048,0,0.1565,0.0108,0.6391,0.176,0.2223,0.6955,0
2004/2/2 18:15,0.4465,0,0.5021,0.0112,0.2838,0.6648,0.3668,1.1105,0
2004/2/2 18:30,1.1841,0,0.7471,0.0111,0.4228,1.5876,0.3673,0.1247,0
2004/2/2 18:45,0.8718,0,0.7343,0.0111,0.3613,1.2722,0.2985,0.42,0
2004/2/2 19:00,0.732,0,0.7214,0.0111,0.6029,1.128,0.3676,0.4909,0
2004/2/2 19:15,0.6846,0,0.7167,0.0112,0.2411,0.9816,0.2995,0.6288,0
2004/2/2 19:30,0.6373,0,0.7947,0.2691,0.5422,1.0466,0.2935,0.3393,0
2004/2/2 19:45,0.6428,0,0.81,0.0111,0.4283,1.0693,0.3587,0.5871,0
2004/2/2 20:00,0.6359,0,0.7249,0.0108,0.4314,1.1203,0.3558,0.4725,0
2004/2/2 20:15,0.5748,0,0.699,0.0109,0.2939,1.0637,0.2242,0.505,0
2004/2/2 20:30,0.5393,0,0.7008,0.0109,0.5448,1.0349,0.356,0.5548,0
2004/2/2 20:45,0.5808,0,0.7001,0.0109,0.467,1.0705,0.361,0.4854,0
2004/2/2 21:00,0.5386,0,1.0362,0.0108,0.3139,1.0184,0.2845,1.0902,0
2004/2/2 21:15,0.5321,0,1.8131,0.0109,0.4867,1.0248,0.2879,1.2521,0
2004/2/2 21:30,0.5538,0,1.9646,0.0109,0.5727,1.0421,0.3597,1.1824,0
2004/2/2 21:45,0.5026,0,1.9202,0.0111,0.4216,1.0032,0.2843,1.1583,0
2004/2/2 22:00,0.54,0,1.8909,0.0109,0.4437,1.0338,0.3555,1.147,0
2004/2/2 22:15,0.5109,0,1.517,0.0111,0.4131,1.0037,0.2144,0.7695,0
2004/2/2 22:30,0.5013,0,1.6223,0.0109,0.6576,0.9916,0.3535,0.6,0
2004/2/2 22:45,0.5171,0,1.3915,0.0109,0.3116,0.9553,0.3473,0.4139,0
2004/2/2 23:00,0.4658,0,0.6263,0.0108,0.7196,0.9056,0.2097,0.624,0
2004/2/2 23:15,0.4833,0,0.7046,0.0108,0.3895,0.8711,0.337,0.502,0
2004/2/2 23:30,0.5122,0,1.0483,0.0109,0.5066,0.7713,0.3682,0.2992,0
2004/2/2 23:45,0.4499,0,0.6494,0.0108,0.3017,0.8238,0.2857,0.1848,0
2004/2/3 0:00,0.4487,0,0.5561,0.0109,0.6489,0.9285,0.3276,0.0541,0
2004/2/3 0:15,0.005,0,0,0.0109,0.4061,0.2608,0.1924,0.5645,0
2004/2/3 0:30,0.005,0,0,0.0111,0.6028,0.2609,0.3352,0.5566,0
2004/2/3 0:45,0.0049,0,0,0.0108,0.4857,0.2596,0.3266,0.5583,0
2004/2/3 1:00,0.005,0,0,0.0111,0.5026,0.2608,0.2591,0.5597,0
2004/2/3 1:15,0.005,0,0,0.0111,0.2598,0.2616,0.2604,0.5737,0
2004/2/3 1:30,0.0049,0,0,0.0107,0.5734,0.2578,0.3305,0.5482,0
2004/2/3 1:45,0.0048,0,0,0.0108,0.4445,0.2572,0.2632,0.5504,0
2004/2/3 2:00,0.0049,0,0,0.0107,0.5581,0.204,0.2645,0.5593,0
2004/2/3 2:15,0.0049,0,0,0.0108,0.2334,0.1786,0.2637,0.5581,0
2004/2/3 2:30,0.0049,0,0,0.0108,0.518,0.1787,0.3374,0.5789,0
2004/2/3 2:45,0.0049,0,0.0003,0.0108,0.4992,0.179,0.2674,0.5446,0
2004/2/3 3:00,0.0049,0,0,0.0108,0.59,0.179,0.2647,0.5471,0
2004/2/3 3:15,0.0049,0,0,0.0109,0.755,0.1793,0.3362,0.5583,0
2004/2/3 3:30,0.0049,0,0,0.0108,1.0236,0.1794,0.2569,0.5586,0
2004/2/3 3:45,0.0049,0,0.0003,0.0109,0.4751,0.1797,0.3372,0.5345,0
2004/2/3 4:00,0.005,0,0,0.0109,0.6864,0.179,0.2586,0.5499,0
2004/2/3 4:15,0.0049,0,0.0003,0.0108,0.4265,0.1794,0.269,0.5488,0
2004/2/3 4:30,0.0048,0,0,0.0109,0.6319,0.1783,0.3417,0.561,0
2004/2/3 4:45,0.0049,0,0.001,0.0108,0.1541,0.1781,0.2703,0.5584,0
2004/2/3 5:00,0.0049,0,0,0.0109,0.5692,0.179,0.2668,0.5522,0
2004/2/3 5:15,0.0049,0,0,0.0108,0.3616,0.178,0.3378,0.5642,0
2004/2/3 5:30,0.0048,0,0.0013,0.0107,0.6408,0.1764,0.198,0.5626,0
2004/2/3 5:45,0.0049,0,0.0014,0.0107,0.2487,0.177,0.3326,0.5314,0
2004/2/3 6:00,0.0049,0,0.003,0.0107,0.4321,0.1748,0.3257,0.5475,0
2004/2/3 6:15,0.0048,0,0.006,0.0108,0.3384,0.1776,0.3423,0.5244,0
2004/2/3 6:30,1.1405,0,0.462,0.0108,0.6562,1.5453,0.1997,0.83,0
2004/2/3 6:45,0.8041,0,0.5521,0.5708,0.3286,1.22,0.4772,1.7094,0
2004/2/3 7:00,0.7039,0,0.42,0.0108,0.6853,1.1631,0.3313,1.0719,0
2004/2/3 7:15,0.6013,0,0.0939,0.0107,0.3957,0.8248,0.2582,2.6178,0
2004/2/3 7:30,0.5698,0,0,0.0108,0.4935,0.7524,0.3364,0.2422,0
2004/2/3 7:45,0.6084,0,0,0.0108,0.2065,0.8045,0.3329,0.1976,0
2004/2/3 8:00,0.5728,0,0.0003,0.0109,0.6991,0.7681,0.2671,0.2308,0
2004/2/3 8:15,0.5073,0,0,0.5098,0.3217,0.8184,0.2667,0.144,0
2004/2/3 8:30,0.5761,0,0,0.0109,0.6759,0.8352,0.3865,-0.0969,0
2004/2/3 8:45,0.4965,0,0.0147,0.0109,0.3673,0.6847,0.3408,0.0048,0
2004/2/3 9:00,0.5407,0,0.0213,0.0108,0.5838,0.8029,0.1956,-0.0811,0
2004/2/3 9:15,0.5014,0,0.021,0.0108,0.1944,0.9098,0.341,0.0863,0
2004/2/3 9:30,0.5442,0,0.1051,0.0105,0.6984,0.9667,0.3325,-0.0721,0
2004/2/3 9:45,0.47,0,0.7389,0.0108,0.3197,0.879,0.4658,0.0445,0
2004/2/3 10:00,0.4378,0,0.0065,0.0105,0.5571,0.8425,0.274,0.395,0
2004/2/3 10:15,0.0049,0,0,0.0107,0.1531,0.3264,0.3449,0.499,0
2004/2/3 10:30,0.0048,0,0,0.0107,0.6941,0.1788,0.3973,0.4749,0
2004/2/3 10:45,0.0049,0,0,0.0107,0.3118,0.1791,0.1961,0.4644,0
2004/2/3 11:00,0.0049,0,0,0.0107,0.5666,0.1783,0.3351,0.4948,0
2004/2/3 11:15,0.0049,0,0,0.0108,0.1359,0.1794,0.3371,0.4818,0
2004/2/3 11:30,0.0049,0,0,0.0107,0.6545,0.1793,0.3305,0.486,0
2004/2/3 11:45,0.0048,0,0,0.0108,0.3642,0.1809,0.1954,0.4545,0
2004/2/3 12:00,0.0049,0,0,0.0107,0.6025,0.2089,0.3377,0.4853,0
2004/2/3 12:15,0.0049,0,0,0.0108,0.1927,0.1797,0.3267,0.4549,0
2004/2/3 12:30,0.005,0,0,0.0108,0.5096,0.1791,0.2436,0.4774,0
2004/2/3 12:45,0.0049,0,0,0.0108,0.4265,0.1784,0.2835,0.4876,0
2004/2/3 13:00,0.0049,0,0,0.0109,0.6028,0.179,0.3305,0.4653,0
2004/2/3 13:15,0.005,0,0,0.0109,0.3907,0.1816,0.265,0.4949,0
2004/2/3 13:30,0.0049,0,0,0.0108,0.3622,0.1809,0.2647,0.4948,0
2004/2/3 13:45,0.005,0,0,0.0109,0.4396,0.1806,0.2568,0.4782,0
2004/2/3 14:00,0.0049,0,0,0.0108,0.5453,0.1801,0.3154,0.4692,0
2004/2/3 14:15,0.0049,0,0,0.0109,0.4769,0.1797,0.323,0.4838,0
2004/2/3 14:30,0.0049,0,0,0.0108,0.5227,0.1786,0.1921,0.4645,0
2004/2/3 14:45,0.005,0,0,0.0108,0.753,0.1786,0.338,0.4975,0
2004/2/3 15:00,0.0049,0,0,0.0109,0.9016,0.1797,0.3364,0.4608,0
2004/2/3 15:15,0.0049,0,0,0.0108,0.7389,0.1786,0.1928,0.4692,0
2004/2/3 15:30,0.0049,0,0,0.0109,0.5283,0.181,0.3316,0.4893,0
2004/2/3 15:45,0.005,0,0,0.0109,0.6604,0.1813,0.2614,0.489,0
2004/2/3 16:00,0.0049,0,0,0.0108,0.2727,0.18,0.2635,0.4791,0
2004/2/3 16:15,0.005,0,0,0.0109,0.5596,0.1786,0.3249,0.4841,0
2004/2/3 16:30,0.0049,0,0,0.0108,0.3767,0.179,0.2605,0.4795,0
2004/2/3 16:45,0.005,0,0.0024,0.0109,0.6607,0.1803,0.2673,0.5121,0
2004/2/3 17:00,0.005,0,0.0058,0.0109,0.1498,0.1799,0.2572,0.4906,0
2004/2/3 17:15,0.0049,0,0.0026,0.0108,0.6659,0.1778,0.3387,0.4985,0
2004/2/3 17:30,0.0049,0,0.0033,0.0109,0.3393,0.1788,0.2588,0.49,0
2004/2/3 17:45,0.0049,0,0.0052,0.0108,0.6637,0.1781,0.2611,0.524,0
2004/2/3 18:00,0.0049,0,0.0045,0.0109,0.234,0.1783,0.3277,0.4945,0
2004/2/3 18:15,0.0049,0,0.0086,0.0107,0.4746,0.1771,0.2621,0.5108,0
2004/2/3 18:30,0.005,0,0.0024,0.0109,0.3217,0.1781,0.2648,0.4899,0
2004/2/3 18:45,0.0049,0,0.0081,0.0108,0.6949,0.1778,0.3384,0.4814,0
2004/2/3 19:00,0.0049,0,0.5052,0.0108,0.321,0.2618,0.1944,0.6025,0
2004/2/3 19:15,0.0049,0,0.7034,0.0109,0.5453,0.2606,0.3312,0.4853,0
2004/2/3 19:30,0.005,0,0.7368,0.0108,0.1642,0.2622,0.3288,0.6168,0
2004/2/3 19:45,0.0049,0,0.7734,0.0109,0.6929,0.481,0.1954,0.5596,0
2004/2/3 20:00,0.7498,0,0.7665,0.0109,0.3158,1.2046,0.3331,-0.203,0
2004/2/3 20:15,1.026,0,0.7655,0.0109,0.6391,1.4972,0.2635,-0.4595,0
2004/2/3 20:30,0.7062,0,0.7631,0.0109,0.1518,1.1765,0.2652,-0.1463,0
2004/2/3 20:45,0.6432,0,0.7602,0.0109,0.5351,1.0974,0.3309,-0.0768,0
2004/2/3 21:00,0.6574,0,0.7635,0.0109,0.3636,1.1593,0.2688,-0.0799,0
2004/2/3 21:15,0.6157,0,0.721,0.0111,0.6647,1.0983,0.3521,0.8878,0
2004/2/3 21:30,0.5373,0,0.6113,0.8532,0.342,1.0215,0.7423,0.4861,0
2004/2/3 21:45,0.5957,0,0.4802,0.0111,0.7008,1.0878,0.3321,0.444,0
2004/2/3 22:00,0.5573,0,0.6519,0.0108,0.3884,0.9636,0.2627,0.3756,0
2004/2/3 22:15,0.5309,0,0.9508,0.0111,0.4369,0.9438,0.2642,0.4972,0
2004/2/3 22:30,0.5388,0,1.0261,0.0112,0.2616,0.9582,0.6054,0.4545,0
2004/2/3 22:45,0.5096,0,0.7874,0.0109,0.6486,0.9204,0.5962,0.4873,0
2004/2/3 23:00,0.5057,0,0.9179,0.0109,0.3743,0.9167,0.3362,0.4422,0
2004/2/3 23:15,0.5206,0,0.7946,0.0111,0.4729,0.9406,0.4844,0.4723,0
2004/2/3 23:30,0.4581,0,0.7887,0.0109,0.2549,0.8964,0.1914,0.5678,0
2004/2/3 23:45,0.528,0,1.0116,0.0107,0.5884,0.7426,0.3397,0.445,0
2004/2/4 0:00,0.4782,0,1.2352,0.0109,0.4524,0.6958,0.3118,0.5612,0
2004/2/4 0:15,0.4591,0,0.4085,0.0109,0.471,0.8751,0.2609,0.4761,0
2004/2/4 0:30,0.4389,0,0.3995,0.0111,0.2958,0.8281,0.3139,0.4336,0
2004/2/4 0:45,0.0049,0,0,0.0109,0.4615,0.1814,0.2758,0.5829,0
2004/2/4 1:00,0.005,0,0,0.0108,0.5479,0.1812,0.2588,0.5512,0
2004/2/4 1:15,0.0049,0,0,0.0109,0.4363,0.1813,0.2566,0.5499,0
2004/2/4 1:30,0.005,0,0,0.0109,0.449,0.1817,0.2624,0.5728,0
2004/2/4 1:45,0.0049,0,0,0.0109,0.25,0.1794,0.3264,0.5432,0
2004/2/4 2:00,0.005,0,0,0.0108,0.5862,0.1799,0.2569,0.5642,0
2004/2/4 2:15,0.0049,0,0,0.0109,0.4667,0.1803,0.266,0.5659,0
2004/2/4 2:30,0.005,0,0,0.0109,0.6312,0.18,0.3312,0.5543,0
2004/2/4 2:45,0.0049,0,0,0.0109,0.6362,0.1803,0.2642,0.5592,0
2004/2/4 3:00,0.0049,0,0.0003,0.0109,1.0233,0.1787,0.2627,0.5725,0
2004/2/4 3:15,0.0049,0,0.0003,0.0108,0.5736,0.1794,0.3282,0.5462,0
2004/2/4 3:30,0.0049,0,0.0007,0.0108,0.6843,0.1788,0.2628,0.5652,0
2004/2/4 3:45,0.0049,0,0,0.0108,0.4755,0.1794,0.2625,0.5649,0
2004/2/4 4:00,0.0049,0,0.0006,0.0109,0.5998,0.1793,0.2951,0.5204,0
2004/2/4 4:15,0.005,0,0.0003,0.0108,0.2519,0.1788,0.2316,0.5437,0
2004/2/4 4:30,0.0049,0,0.0006,0.0108,0.4558,0.1786,0.3403,0.5479,0
2004/2/4 4:45,0.0049,0,0.0009,0.0108,0.4572,0.1787,0.268,0.5579,0
2004/2/4 5:00,0.0048,0,0.0004,0.0108,0.5185,0.1783,0.2606,0.5625,0
2004/2/4 5:15,0.0049,0,0.0022,0.0108,0.4114,0.1777,0.3364,0.5386,0
2004/2/4 5:30,0.0049,0,0.0014,0.0107,0.3023,0.1761,0.2661,0.5468,0
2004/2/4 5:45,0.0048,0,0.0006,0.0107,0.4265,0.1765,0.2573,0.5338,0
2004/2/4 6:00,0.0048,0,0.0036,0.0107,0.5043,0.176,0.3306,0.5424,0
2004/2/4 6:15,0.0049,0,0.0147,0.0108,0.4919,0.1804,0.2683,0.7534,0
2004/2/4 6:30,0.0048,0,0.504,0.0108,0.2483,0.41,0.3407,1.7012,0
2004/2/4 6:45,0.0048,0,0.5384,0.559,0.4926,0.4095,0.4353,2.5272,0
2004/2/4 7:00,0.0048,0,0.3486,0.0107,0.4863,0.3938,0.3234,2.973,0
2004/2/4 7:15,0.0048,0,0.0012,0.0108,0.5232,0.1781,0.3335,2.1125,0
2004/2/4 7:30,0.0049,0,0,0.0108,0.2854,0.1773,0.3393,0.8034,0
2004/2/4 7:45,0.0049,0,0.0003,0.0109,0.4427,0.179,0.1979,0.8496,0
2004/2/4 8:00,0.0049,0,0,0.0109,0.4867,0.1809,0.3362,0.8063,0
2004/2/4 8:15,0.005,0,0,0.0108,0.5039,0.1797,0.3421,0.7989,0
2004/2/4 8:30,0.0049,0,0.014,0.0109,0.3057,0.1799,0.2616,0.7423,0
2004/2/4 8:45,0.0049,0,0.0033,0.5232,0.4637,0.3738,0.2676,0.5161,0
2004/2/4 9:00,0.0048,0,0.3629,0.0108,0.4653,0.4149,0.3342,0.4982,0
2004/2/4 9:15,0.0049,0,0.1067,0.0109,0.5496,0.4163,0.4092,0.5484,0
2004/2/4 9:30,0.0049,0,0,0.0109,0.4412,0.2661,0.348,0.51,0
2004/2/4 9:45,0.005,0,0,0.0109,0.6074,0.1803,0.3465,0.4631,0
2004/2/4 10:00,0.005,0,0,0.0109,0.305,0.1806,0.3362,0.4935,0
2004/2/4 10:15,0.005,0,0,0.0109,0.3954,0.1797,0.3311,0.4926,0
2004/2/4 10:30,0.005,0,0,0.0111,0.4728,0.1793,0.3347,0.4794,0
2004/2/4 10:45,0.005,0,0,0.0108,0.5426,0.1767,0.2634,0.482,0
2004/2/4 11:00,0.0049,0,0,0.0108,0.3753,0.1771,0.3233,0.4861,0
2004/2/4 11:15,0.005,0,0,0.0108,0.3339,0.1767,0.2604,0.4784,0
2004/2/4 11:30,0.0049,0,0,0.0107,0.5119,0.1761,0.2625,0.4562,0
2004/2/4 11:45,0.0049,0,0,0.0108,0.4912,0.1765,0.3331,0.4656,0
2004/2/4 12:00,0.005,0,0,0.0108,0.3961,0.2092,0.3335,0.4638,0
2004/2/4 12:15,0.005,0,0,0.0109,0.293,0.181,0.1944,0.4861,0
2004/2/4 12:30,0.0049,0,0,0.0109,0.5465,0.1824,0.3288,0.4887,0
2004/2/4 12:45,0.005,0,0,0.0109,0.4653,0.182,0.3349,0.4779,0
2004/2/4 13:00,0.0049,0,0,0.0108,0.5125,0.1796,0.1927,0.4748,0
2004/2/4 13:15,0.0049,0,0,0.0108,0.2337,0.1786,0.3309,0.4427,0
2004/2/4 13:30,0.0049,0,0.0003,0.0107,0.5239,0.1783,0.3345,0.4679,0
2004/2/4 13:45,0.0049,0,0,0.0109,0.4306,0.1787,0.2586,0.4828,0
2004/2/4 14:00,0.005,0,0,0.0108,0.5995,0.1786,0.2631,0.4733,0
2004/2/4 14:15,0.0049,0,0,0.0108,0.2373,0.1786,0.2627,0.4764,0
2004/2/4 14:30,0.005,0,0,0.0108,0.4938,0.1771,0.3332,0.4919,0
2004/2/4 14:45,0.0049,0,0,0.0109,0.4128,0.1774,0.2612,0.4859,0
2004/2/4 15:00,0.005,0,0,0.0109,0.7551,0.178,0.2609,0.4944,0
2004/2/4 15:15,0.0049,0,0,0.0108,0.4697,0.1786,0.3354,0.5157,0
2004/2/4 15:30,0.005,0,0,0.0109,1.1219,0.1794,0.2304,0.4697,0
2004/2/4 15:45,0.0049,0,0.0006,0.0108,0.5823,0.1774,0.2763,0.5033,0
2004/2/4 16:00,0.0049,0,0,0.0108,0.776,0.3069,0.3266,0.4766,0
2004/2/4 16:15,0.0049,0,0,0.0108,0.5134,0.3082,0.2622,0.473,0
2004/2/4 16:30,0.0049,0,0,0.0107,0.6244,0.307,0.253,0.4693,0
2004/2/4 16:45,0.0048,0,0.5302,0.0108,0.2804,0.3084,0.3246,1.4702,0
2004/2/4 17:00,0.0048,0,0.6654,0.0108,0.5496,0.2917,0.3191,0.7625,0
2004/2/4 17:15,0.0049,0,0.6926,0.0108,0.4984,0.2193,0.196,0.756,0
2004/2/4 17:30,0.005,0,2.1377,0.0111,0.484,0.182,0.3243,0.7063,0
2004/2/4 17:45,0.0048,0,2.1862,0.0109,0.4359,0.1806,0.2573,0.6839,0
2004/2/4 18:00,0.0049,0,2.1416,0.0109,0.265,0.18,0.3298,0.6816,0
2004/2/4 18:15,0.3262,0,2.2713,0.0109,0.5622,0.5056,0.2615,0.4961,0
2004/2/4 18:30,1.1484,0,1.0253,0.3882,0.4618,1.5458,0.2481,0.9569,0